This is the latest recevied weather packets stored in our database for station/object N3WPH. If no packets are shown the sender has not sent any weather packets the latest 10 day(s).
| Time | Temp. | Humidity | Pressure | Rain* | Wind** | Luminosity | Snow |
|---|---|---|---|---|---|---|---|
| 1777300722 | 16.67° C | 60% | 1024.6 hPa | 0 mm | - | 608 W/m² | - |
| 1777300420 | 15.56° C | 61% | 1024.6 hPa | 0 mm | - | 598 W/m² | - |
| 1777300117 | 16.67° C | 59% | 1024.6 hPa | 0 mm | - | 586 W/m² | - |
| 1777299813 | 16.11° C | 63% | 1025 hPa | 0 mm | - | 574 W/m² | - |
| 1777299511 | 16.11° C | 64% | 1024.9 hPa | 0 mm | - | 559 W/m² | - |
| 1777299208 | 16.67° C | 64% | 1024.7 hPa | 0 mm | - | 544 W/m² | - |
| 1777298906 | 16.11° C | 65% | 1024.8 hPa | 0 mm | - | 532 W/m² | - |
| 1777298602 | 15.56° C | 66% | 1024.5 hPa | 0 mm | - | 521 W/m² | - |
| 1777298299 | 15° C | 62% | 1024.7 hPa | 0 mm | - | 501 W/m² | - |
| 1777297988 | 15.56° C | 63% | 1024.7 hPa | 0 mm | - | 490 W/m² | - |
| 1777297685 | 15° C | 64% | 1024.6 hPa | 0 mm | - | 475 W/m² | - |
| 1777297383 | 15° C | 67% | 1024.9 hPa | 0 mm | - | 461 W/m² | - |
| 1777297079 | 14.44° C | 67% | 1024.8 hPa | 0 mm | - | 449 W/m² | - |
| 1777296776 | 13.89° C | 70% | 1024.8 hPa | 0 mm | - | 435 W/m² | - |
| 1777296471 | 13.89° C | 68% | 1024.7 hPa | 0 mm | - | 419 W/m² | - |
| 1777296168 | 13.89° C | 68% | 1024.8 hPa | 0 mm | - | 405 W/m² | - |
| 1777295864 | 13.89° C | 69% | 1024.7 hPa | 0 mm | - | 393 W/m² | - |
| 1777295562 | 13.89° C | 69% | 1024.8 hPa | 0 mm | - | 379 W/m² | - |
| 1777295259 | 12.78° C | 73% | 1024.7 hPa | 0 mm | - | 364 W/m² | - |
| 1777294957 | 11.67° C | 76% | 1024.7 hPa | 0 mm | - | 350 W/m² | - |
| 1777294652 | 12.22° C | 77% | 1024.7 hPa | 0 mm | - | 337 W/m² | - |
| 1777294349 | 12.22° C | 76% | 1024.5 hPa | 0 mm | - | 364 W/m² | - |
| 1777294045 | 12.78° C | 76% | 1024.4 hPa | 0 mm | - | 334 W/m² | - |
| 1777293743 | 12.22° C | 79% | 1024.4 hPa | 0 mm | - | 282 W/m² | - |
| 1777293436 | 11.11° C | 82% | 1024.6 hPa | 0 mm | - | 253 W/m² | - |
* Rain latest hour (hover to see other rain measurements)
** Current wind speed in m/s (hover to see current wind gust speed)